Regional Weather Roundup
Issued by NWS Huntsville, AL

Home | Current Version | Previous Version | Text Only | Print | Product List | Glossary On
Versions: 1 2 3 4 5 6 7 8 9 10 11 12 13 14 15 16 17 18 19 20 21 22 23 24 25 26 27 28 29 30 31 32 33 34 35 36 37 38 39 40 41 42 43 44 45 46 47 48 49 50
000
ASUS44 KHUN 262310
RWRHUN

WEATHER ROUNDUP FOR THE TENNESSEE VALLEY
NATIONAL WEATHER SERVICE HUNTSVILLE AL
600 PM CDT THU APR 26 2018

ALZ001>004-270000-
NORTHWEST ALABAMA

CITY           SKY/WX    TMP DP  RH WIND       PRES   REMARKS
SHOALS AIRPORT CLOUDY    58  53  84 NE6       29.87R
$$

ALZ005>007-016-270000-
NORTH CENTRAL ALABAMA

CITY           SKY/WX    TMP DP  RH WIND       PRES   REMARKS
DECATUR AP     CLOUDY    57  54  89 N3        29.85R
HUNTSVILLE AP  PTSUNNY   57  54  89 N6        29.84R
MERIDIANVILLE  CLOUDY    56  54  92 N7        29.84S
REDSTONE ARSN  CLOUDY    55  54  94 NE8       29.83R
VINEMONT AP    FAIR      58  52  81 N10       29.84S
$$

ALZ008>010-270000-
NORTHEAST ALABAMA

CITY           SKY/WX    TMP DP  RH WIND       PRES   REMARKS
ALBERTVILLE    PTSUNNY   59  55  88 CALM      29.81R
FORT PAYNE     CLOUDY    57  52  82 CALM      29.81S
SCOTTSBORO AP  DRIZZLE   55  55 100 NE7       29.84R
$$

TNZ076-096-097-270000-
SOUTHEASTERN MIDDLE TENNESSEE

CITY           SKY/WX    TMP DP  RH WIND       PRES   REMARKS
TULLAHOMA      NOT AVBL
$$

...SURROUNDING SITES...

CITY           SKY/WX    TMP DP  RH WIND       PRES   REMARKS
ATLANTA        PTSUNNY   60  57  89 S7        29.81S
ANNISTON       PTSUNNY   64  54  69 SW9       29.81R
BIRMINGHAM     PTSUNNY   63  54  72 W12       29.83R
CHATTANOOGA    CLOUDY    56  52  86 N10       29.84R
DALTON         HVY RAIN  55  55 100 CALM      29.83R
GADSDEN        PTSUNNY   60  58  92 CALM      29.82R
GOLDEN TRNGL   CLOUDY    61  55  81 NW9       29.85R
HALEYVILLE     CLOUDY    57  55  93 NE7       29.86R
JACKSON TN     CLOUDY    62  56  80 N9        29.90R
MEMPHIS        PTSUNNY   62  54  74 N7        29.90S
NASHVILLE      CLOUDY    59  53  80 N3        29.88S
OXFORD MS      PTSUNNY   57  55  94 NW9G17    29.90R
ROME           FAIR      60  56  86 E3        29.80F
TUPELO         PTSUNNY   63  55  75 NW12      29.85R
TUSCALOOSA     PTSUNNY   63  54  72 W9        29.84R
$$

...GULF COAST WEATHER...

CITY           SKY/WX    TMP DP  RH WIND       PRES   REMARKS
GULFPORT       FAIR      73  49  42 NW13      29.85R
PASCAGOULA     FAIR      73  46  38 NW12      29.84R
MOBILE         FAIR      72  50  45 NW7G17    29.85R
GULF SHORES    FAIR      71  60  68 W15       29.82S
PENSACOLA      FAIR      73  58  59 VRB5      29.81
DESTIN         FAIR      74  61  63 SW12G20   29.81S
PANAMA CITY    MOSUNNY   72  66  83 SW10      29.83S
APPALACHICOLA  FAIR      76  63  64 W15       29.84S
$$




USA.gov is the U.S. government's official web portal to all federal, state and local government web resources and services.